sat.trackr.live / text

‹ back to catalog

STARLINK-35758

NORAD 66229 · 2025-244Z

PAYLOAD ACTIVE UNKNOWN

§ Identity

Operator
Country
US
Launch date
2025-10-28
Launch site
AFWTR
Launch vehicle
Mass (kg)
RCS (m²)

Purposes: comms

External: N2YO · Heavens-Above · Gunter

§ Orbital elements

Epoch: 2026-05-24T17:32:59.056512Z

Period
94.11 min
Inclination
53.1585°
Eccentricity
0.0001085
Mean motion
15.30204140 rev/d
Perigee alt
474.5 km
Apogee alt
475.9 km
Semi-major
6,853.3 km
B*
9.7797e-4
RAAN
236.5709°
Arg perigee
74.9808°
Mean anomaly
285.1312°
Rev number
3,330

§ Raw data

STARLINK-357581 66229U 25244Z   26144.73123908  .00028721  00000+0  97797-3 0  99932 66229  53.1585 236.5709 0001085  74.9808 285.1312 15.30204140 33307

JSON: /api/v1/satellites/66229 · /tle

For live sub-satellite position, see the globe view (requires WebGL).

§ Visibility from observer

Set your observer location to see the next 7 days of passes ≥ 10°. The values pass through the URL so the page stays shareable.

No JS? Fill the form by hand. The geolocation button needs JavaScript.